Simultaneous Nadir Overpasses (SNOs) Predictions

Prediction of SNOs between GOES-16 and METOP-B Satellite Orbit:

Table of predicted SNOs for the next 14.0 days since TLE Epoch: 2/28/2025
Index Date Time (GOES-16) GOES-16 Lat,Lon METOP-B Lat,Lon Distance(km) Time Diff (sec)
1 03/01/2025 02:14:39 -0.03, -75.18 -0.08, -75.39 24.18 80
2 03/03/2025 14:12:59 0.03, -75.23 0.02, -75.01 23.79 80
3 03/06/2025 02:08:48 -0.03, -75.21 0.12, -74.69 60.57 80
4 03/07/2025 14:27:44 0.03, -75.25 0.90, -79.29 458.67 80
5 03/08/2025 14:09:47 0.03, -75.26 -0.16, -74.30 109.20 80
6 03/10/2025 02:28:51 -0.04, -75.25 -0.85, -78.94 419.74 80
7 03/11/2025 02:05:34 -0.03, -75.27 0.28, -73.97 148.63 80
8 03/12/2025 14:24:30 0.04, -75.32 0.77, -78.56 368.87 80
9 03/13/2025 14:06:33 0.04, -75.34 -0.37, -73.59 200.36 80
